Location: Gerlach
(40.6516°N, 119.3568°W)
Time: 14:44:36
(UTC-07:00)

A-11 Canister half - Pass Details

Date: 21 February 2024
Orbit: 1525 x 1683 km, 47.3° (Epoch: 21 April)

Event Time Altitude Azimuth Distance (km) Brightness Sun altitude
Rises 19:32:06 0° 195° (SSW) 4,783 11.7 -22.1°
Reaches altitude 10° 19:35:47 10° 184° (S) 3,776 11.0 -22.8°
Enters shadow 19:42:50 28° 136° (SE) 2,590 9.8 -24.1°
